Regional Weather Roundup
Issued by NWS

Home | Current Version | Previous Version | Text Only | Print | Product List | Glossary Off
Versions: 1 2 3 4 5 6 7 8 9 10 11 12 13 14 15 16 17 18 19 20 21 22 23 24 25 26 27 28 29 30 31 32 33 34 35 36 37 38 39 40 41 42 43 44 45 46 47 48 49 50

000
ASUS45 KCYS 250210
RWRWY

WYOMING REGIONAL WEATHER ROUNDUP
NATIONAL WEATHER SERVICE CHEYENNE WY
700 PM MST SAT JAN 24 2015

NOTE:  "FAIR" INDICATES FEW OR NO CLOUDS BELOW 12,000 FEET
WITH NO SIGNIFICANT WEATHER AND/OR OBSTRUCTIONS TO VISIBILITY.

WYZ001-250300-
YELLOWSTONE NATIONAL PARK

CITY           SKY/WX    TMP DP  RH WIND       PRES   REMARKS
LK YELLOWSTONE   N/A     24  20  84 VRB5      30.36R WCI  18
W YELLOWSTONE  NOT AVBL

$$
WYZ002>013-054>058-071-098>099-250300-
NORTHERN WYOMING

CITY           SKY/WX    TMP DP  RH WIND       PRES   REMARKS
JACKSON        CLOUDY    25  25 100 N7        30.38R WCI  17
CODY           FAIR      37  25  60 SE8       30.16R WCI  31
GREYBULL       FAIR      25  21  85 CALM      30.17R
WORLAND        FAIR      21  18  88 SW5       30.17R WCI  15
SHERIDAN       FAIR      39  31  72 NW15      30.12R WCI  31
BUFFALO        FLURRIES  37  30  75 NW21G35   30.13R WCI  26
GILLETTE       FAIR      34  30  85 W17       30.07R WCI  23
HULETT           N/A    N/A N/A N/A MISG        N/A
NEWCASTLE      FAIR      34  30  86 NW17G23   30.03R WCI  23

$$
WYZ014>020-022>026-101>103-250300-
CENTRAL WYOMING

CITY           SKY/WX    TMP DP  RH WIND       PRES   REMARKS
BIG PINEY      FAIR      33  25  72 NW13      30.30R WCI  24
PINEDALE       FAIR      32  27  80 NW25      30.27S WCI  19
DUBOIS         FAIR      32  27  80 NW14G23   30.24R WCI  22
LANDER         FAIR      39  28  64 E5        30.17R
RIVERTON       FAIR      38  25  59 N10       30.19R WCI  31
CASPER         FAIR      30  28  92 CALM      30.18R
DOUGLAS        CLOUDY    35  30  82 NW23G31   30.11F WCI  23

$$
WYZ021-027>030-104>119-250300-
SOUTHERN WYOMING

CITY           SKY/WX    TMP DP  RH WIND       PRES   REMARKS
EVANSTON       CLOUDY    32  26  78 SW10      30.40R WCI  24
KEMMERER       CLOUDY    30  28  93 W14G22    30.36R WCI  20
FORT BRIDGER   FAIR      34  31  87 W15G24    30.39S WCI  24
ROCK SPRINGS   FAIR      33  26  75 W30G37    30.28R WCI  19
DIXON          CLOUDY    33  22  64 W6        30.32S WCI  27
RAWLINS        MOCLDY    31  21  66 W24G31    30.22S WCI  17
SARATOGA       FAIR      32  21  64 W18G26    30.22R WCI  20
LARAMIE        MOCLDY    32  21  64 W18       30.12R WCI  20
CHEYENNE       MOCLDY    39  23  52 NW18G33   30.07R WCI  30
TORRINGTON     CLOUDY    40  32  73 W26G36    30.06R WCI  29
PINE BLUFFS    CLOUDY    36  32  87 NW26G48   30.10R WCI  23

$$


USA.gov is the U.S. government's official web portal to all federal, state and local government web resources and services.